Zurück zum Katalog

MUOS 1

AktivMilitärGEO
NORAD 38093·PAYLOAD·🇺🇸 United States

Gestartet Feb 24, 2012 von Cape Canaveral Space Force Station

Loading…

TLE

AktuellSource: Space-Track

Epoche: Sep 14, 2026, 15:27 UTC

1 38093U 12009A   26257.64432057 -.00000134  00000-0  00000-0 0  9997
2 38093   5.6564  46.9851 0052559   3.9698  74.6727  1.00271509 53348

Verfolge MUOS 1 in Echtzeit mit AllMySat

Download on the App Store